Simultaneous Nadir Overpasses (SNOs) Predictions

Prediction of SNOs between FY3D and TERRA Satellite Orbit:

Table of predicted SNOs for the next 14.0 days since TLE Epoch: 4/4/2020
Index Date (FY3D) Time (FY3D) Lat,Lon (FY3D) SZA (FY3D ) Date (TERRA) Time (TERRA) Lat,Lon (TERRA) SZA (TERRA ) Distance(km) Time Diff (sec)
1 04/06/2020 14:27:58 -68.90, 142.08 117.99 04/06/2020 14:29:10 -68.89, 142.08 118.00 0.84 72
2 04/06/2020 15:18:41 68.76, -50.43 61.87 04/06/2020 15:18:37 68.78, -50.42 61.88 1.58 4
3 04/06/2020 16:09:21 -68.57, 117.15 118.34 04/06/2020 16:08:08 -68.62, 117.01 118.30 7.11 73
4 04/09/2020 06:44:24 -69.00,-102.15 118.88 04/09/2020 06:45:36 -68.97,-101.94 118.92 9.40 72
5 04/09/2020 07:35:05 68.76, 65.49 60.86 04/09/2020 07:35:05 68.74, 65.42 60.84 3.28 0
6 04/09/2020 08:25:46 -68.62,-127.01 119.29 04/09/2020 08:24:35 -68.64,-127.07 119.28 2.90 71
7 04/11/2020 23:00:50 -69.10, 13.61 119.77 04/11/2020 23:02:02 -69.04, 14.05 119.84 18.79 72
8 04/11/2020 23:51:29 68.76,-178.60 59.87 04/11/2020 23:51:32 68.75,-178.67 59.87 2.71 3
9 04/12/2020 00:42:11 -68.67, -11.17 120.23 04/12/2020 00:41:02 -68.65, -11.16 120.25 2.34 69
10 04/14/2020 15:17:16 -69.21, 129.37 120.63 04/14/2020 15:18:28 -69.11, 130.02 120.74 28.44 72
11 04/14/2020 16:07:54 68.81, -62.77 58.96 04/14/2020 16:07:58 68.82, -62.70 58.97 3.01 4
12 04/14/2020 16:58:35 -68.67, 104.73 121.20 04/14/2020 16:57:29 -68.66, 104.74 121.21 1.16 66
13 04/17/2020 07:33:41 -69.32,-114.88 121.46 04/17/2020 07:34:52 -69.22,-113.94 121.57 38.79 71
14 04/17/2020 08:24:17 68.81, 53.13 58.01 04/17/2020 08:24:24 68.82, 53.20 58.02 2.88 7
15 04/17/2020 09:14:58 -68.68,-139.37 122.14 04/17/2020 09:13:55 -68.67,-139.36 122.15 0.78 63




NCC Satellite Simultaneous Nadir Overpasses (SNOs) Prediction Service
